GSAT0209 (GALILEO 12) (41174 NORAD) Tracking and Keplerian Element Data

This shows tracking and keplerian element data for the satellite.

Feedback or suggestion? Click here.




ElementValue
Catalog41174
NameGSAT0209 (GALILEO 12)
Epoch Orbit2097
Epoch Day145.82989782
Epoch Year2019
RAAN172.18
Inclination54.9418
Eccentricity0.0006367
Argument of Perigee296.5594
Mean Anonmoly63.4299
Mean Motion1.70473851
Decay Rate6E-07
L11 41174U 15079A 19145.82989782 .00000060 00000-0 00000-0 0 9998
L22 41174 54.9418 172.1800 0006367 296.5594 63.4299 1.70473851 20978

Live tracking and technical data element details for GSAT0209 (GALILEO 12) (NORAD 41174). GSAT0209 (GALILEO 12) can be tracked NOW for your location showing map with azimuth and elevation plus other details from your city location.

Track the satellite on the map from your city or location and see movement details for azimuth, elevation, latitude, longitude, range, height, and movement on the map or in text.







IsCatalogInMostPopularTable: catalog: 41174, numindb: 209
Update: records affected: 1



GetName: 41174 GSAT0209 (GALILEO 12)

Hit Count: updated at: Mon, 27 May 2019 02:58:05 GMT